TimeEDT,TemperatureF,Dew PointF,Humidity,Sea Level PressureIn,VisibilityMPH,Wind Direction,Wind SpeedMPH,Gust SpeedMPH,PrecipitationIn,Events,Conditions,WindDirDegrees,DateUTC
12:53 AM,68.0,66.0,93,30.15,10.0,Calm,Calm,-,N/A,,Scattered Clouds,0,2013-08-21 04:53:00
1:53 AM,66.9,64.9,93,30.14,10.0,Calm,Calm,-,N/A,,Scattered Clouds,0,2013-08-21 05:53:00
2:53 AM,66.9,64.9,93,30.12,10.0,Calm,Calm,-,N/A,,Scattered Clouds,0,2013-08-21 06:53:00
3:53 AM,66.9,64.9,93,30.13,10.0,Calm,Calm,-,N/A,,Scattered Clouds,0,2013-08-21 07:53:00
4:53 AM,66.0,64.0,93,30.14,4.0,Calm,Calm,-,N/A,,Scattered Clouds,0,2013-08-21 08:53:00
5:53 AM,66.0,64.0,93,30.15,6.0,Calm,Calm,-,N/A,,Overcast,0,2013-08-21 09:53:00
6:05 AM,66.0,64.0,93,30.23,2.5,NE,3.5,-,N/A,,Overcast,40,2013-08-21 10:05:00
6:26 AM,66.9,64.9,93,30.23,9.0,Calm,Calm,-,N/A,,Overcast,0,2013-08-21 10:26:00
6:53 AM,66.9,64.9,93,30.17,4.0,NNE,3.5,-,N/A,,Mostly Cloudy,20,2013-08-21 10:53:00
7:53 AM,66.9,64.9,93,30.18,8.0,Calm,Calm,-,N/A,,Overcast,0,2013-08-21 11:53:00
8:53 AM,70.0,66.9,90,30.19,10.0,Calm,Calm,-,N/A,,Overcast,0,2013-08-21 12:53:00
9:53 AM,72.0,68.0,87,30.18,10.0,North,4.6,-,N/A,,Overcast,360,2013-08-21 13:53:00
10:53 AM,75.0,66.9,76,30.20,10.0,Calm,Calm,-,N/A,,Overcast,0,2013-08-21 14:53:00
11:53 AM,77.0,68.0,74,30.20,10.0,Calm,Calm,-,N/A,,Mostly Cloudy,0,2013-08-21 15:53:00
12:53 PM,80.1,66.9,64,30.19,10.0,ESE,3.5,-,N/A,,Overcast,120,2013-08-21 16:53:00
1:53 PM,81.0,66.9,62,30.16,10.0,Calm,Calm,-,N/A,,Overcast,0,2013-08-21 17:53:00
2:53 PM,81.0,66.0,60,30.14,10.0,South,4.6,-,N/A,,Overcast,190,2013-08-21 18:53:00
3:53 PM,81.0,66.9,62,30.13,10.0,SW,5.8,-,N/A,,Overcast,230,2013-08-21 19:53:00
4:53 PM,80.1,68.0,67,30.12,10.0,WSW,5.8,-,N/A,,Overcast,250,2013-08-21 20:53:00
5:53 PM,79.0,69.1,72,30.10,10.0,West,6.9,-,0.00,,Overcast,270,2013-08-21 21:53:00
6:53 PM,77.0,70.0,79,30.12,10.0,WNW,9.2,-,N/A,,Overcast,290,2013-08-21 22:53:00
7:53 PM,75.9,68.0,76,30.12,10.0,WNW,4.6,-,N/A,,Mostly Cloudy,290,2013-08-21 23:53:00
8:53 PM,73.0,68.0,84,30.12,10.0,NW,3.5,-,N/A,,Mostly Cloudy,320,2013-08-22 00:53:00
9:53 PM,70.0,66.9,90,30.14,9.0,Calm,Calm,-,N/A,,Mostly Cloudy,0,2013-08-22 01:53:00
10:53 PM,70.0,66.9,90,30.15,10.0,Calm,Calm,-,N/A,,Scattered Clouds,0,2013-08-22 02:53:00
11:46 PM,68.0,66.0,93,30.21,1.8,Calm,Calm,-,N/A,,Scattered Clouds,0,2013-08-22 03:46:00
11:48 PM,68.0,66.2,94,30.21,3.0,Calm,Calm,-,N/A,,Scattered Clouds,0,2013-08-22 03:48:00
11:53 PM,68.0,66.0,93,30.14,3.0,Calm,Calm,-,N/A,,Scattered Clouds,0,2013-08-22 03:53:00